Location: Newark
(43.6317°N, 70.2728°W)
Time: 22:57:13
(UTC+00:00)

N. Korean satellite - Visible Passes

Search period start: 23 October 2019 00:00
Search period end: 02 November 2019 00:00
Orbit: 455 x 508 km, 97.2° (Epoch: 23 October)

Date Brightness Start Highest point End Pass type
(mag) Time Alt. Az. Time Alt. Az. Time Alt. Az.
23 Oct 9.6 09:50:37 10° NE 09:53:26 21° E 09:56:15 10° SE visible
24 Oct 10.5 09:27:10 10° ENE 09:27:55 10° E 09:28:40 10° ESE visible
25 Oct 7.0 10:32:40 10° NNE 10:36:21 71° ESE 10:40:01 10° S visible
25 Oct 9.9 22:43:57 10° SW 22:46:11 16° W 22:48:27 10° NW visible
26 Oct 8.6 10:07:37 10° NNE 10:10:58 33° E 10:14:21 10° SSE visible
26 Oct 8.6 22:17:34 10° SSW 22:20:43 33° W 22:23:54 10° NNW visible
27 Oct 9.9 09:43:02 10° NE 09:45:31 17° E 09:48:01 10° SE visible
29 Oct 7.5 10:24:49 10° NNE 10:28:28 56° E 10:32:06 10° S visible
29 Oct 9.6 22:35:35 10° SW 22:38:13 20° W 22:40:54 10° NW visible
30 Oct 9.1 09:59:51 10° NE 10:03:03 27° E 10:06:15 10° SSE visible
30 Oct 8.0 22:09:27 10° S 22:12:45 42° W 22:16:08 10° NNW visible
31 Oct 10.2 09:35:31 10° ENE 09:37:34 14° E 09:39:36 10° SE visible
01 Nov 6.6 10:42:09 10° N 10:45:52 85° WNW 10:49:35 10° SSW visible
01 Nov 10.1 22:54:07 10° WSW 22:55:44 13° W 22:57:22 10° WNW visible
